Location: Vinland
(47.7731°N, 122.6974°W)
Time: 05:23:48
(UTC+00:00)

Vanguard 2 - Pass Details

Date: 21 April 2024
Orbit: 552 x 2914 km, 32.9° (Epoch: 25 May)

Event Time Altitude Azimuth Distance (km) Brightness Sun altitude
Exits shadow 11:34:11 17° 240° (WSW) 4,882 10.9 -14.9°
Maximum altitude 11:47:14 48° 178° (S) 3,528 10.6 -13.1°
Drops below altitude 10° 12:02:45 10° 112° (ESE) 5,332 12.3 -10.9°
Sets 12:06:41 0° 106° (ESE) 6,120 12.8 -10.4°
